TAV7DR EKCH-EFHK

Flight info

Callsign TAV7DR
Flight time 1h 9m
Altitude 39000
Route KEMAX Q44 IDPAL DCT MOVIS DCT ALAMI DCT OKEVU DCT EVADI Y370 DIVAM
Aircraft A20N/M-SDE2E3FGHIJ1RWXY/LB1

Departure

Time 2026-05-07 15:43
Airport Copenhagen Kastrup Airport (EKCH)

Arrival

Time 2026-05-07 16:52
Airport Helsinki Vantaa Airport (EFHK)
Time Latitude Longitude Altitude Speed Heading
2026-05-07 15:03 55.62854 12.64250 18 ft 0 kts 100°
2026-05-07 15:30 55.62855 12.64239 18 ft 2 kts 100°
2026-05-07 15:31 55.62857 12.64213 18 ft 2 kts 89°
2026-05-07 15:31 55.62855 12.64186 19 ft 2 kts 81°
2026-05-07 15:31 55.62852 12.64159 18 ft 2 kts 71°
2026-05-07 15:31 55.62846 12.64134 18 ft 2 kts 65°
2026-05-07 15:32 55.62839 12.64109 17 ft 2 kts 67°
2026-05-07 15:32 55.62833 12.64085 17 ft 2 kts 66°
2026-05-07 15:32 55.62828 12.64061 16 ft 2 kts 66°
2026-05-07 15:32 55.62822 12.64036 16 ft 2 kts 78°
2026-05-07 15:33 55.62820 12.64009 15 ft 2 kts 90°
2026-05-07 15:33 55.62822 12.63983 15 ft 2 kts 107°
2026-05-07 15:33 55.62826 12.63957 15 ft 2 kts 103°
2026-05-07 15:33 55.62829 12.63931 15 ft 2 kts 104°
2026-05-07 15:34 55.62833 12.63905 15 ft 2 kts 104°
2026-05-07 15:34 55.62837 12.63880 15 ft 1 kts 104°
2026-05-07 15:34 55.62837 12.63877 15 ft 0 kts 104°
2026-05-07 15:36 55.62836 12.63885 15 ft 2 kts 104°
2026-05-07 15:36 55.62815 12.63940 15 ft 8 kts 144°
2026-05-07 15:36 55.62754 12.63930 15 ft 10 kts 208°
2026-05-07 15:37 55.62687 12.63857 15 ft 11 kts 212°
2026-05-07 15:37 55.62611 12.63782 15 ft 13 kts 199°
2026-05-07 15:37 55.62517 12.63779 15 ft 14 kts 164°
2026-05-07 15:37 55.62433 12.63875 15 ft 14 kts 131°
2026-05-07 15:38 55.62371 12.64031 15 ft 15 kts 123°
2026-05-07 15:38 55.62311 12.64197 15 ft 16 kts 122°
2026-05-07 15:38 55.62250 12.64366 15 ft 16 kts 128°
2026-05-07 15:38 55.62142 12.64427 15 ft 17 kts 170°
2026-05-07 15:39 55.62022 12.64466 15 ft 17 kts 170°
2026-05-07 15:39 55.61900 12.64508 15 ft 18 kts 169°
2026-05-07 15:39 55.61773 12.64550 15 ft 18 kts 170°
2026-05-07 15:39 55.61649 12.64536 15 ft 18 kts 213°
2026-05-07 15:40 55.61539 12.64407 15 ft 19 kts 214°
2026-05-07 15:40 55.61426 12.64279 16 ft 18 kts 213°
2026-05-07 15:40 55.61306 12.64143 16 ft 19 kts 210°
2026-05-07 15:40 55.61186 12.64005 16 ft 19 kts 214°
2026-05-07 15:41 55.61071 12.63871 17 ft 19 kts 213°
2026-05-07 15:41 55.60955 12.63736 17 ft 19 kts 213°
2026-05-07 15:41 55.60838 12.63604 15 ft 20 kts 203°
2026-05-07 15:41 55.60726 12.63712 15 ft 20 kts 130°
2026-05-07 15:42 55.60713 12.63926 15 ft 19 kts 46°
2026-05-07 15:42 55.60981 12.64337 15 ft 89 kts 41°
2026-05-07 15:42 55.61617 12.65323 29 ft 151 kts 40°
2026-05-07 15:42 55.62471 12.66681 484 ft 170 kts 39°
2026-05-07 15:43 55.63370 12.68058 1347 ft 170 kts 38°
2026-05-07 15:43 55.64298 12.69450 1955 ft 182 kts 37°
2026-05-07 15:43 55.65294 12.70939 2496 ft 197 kts 38°
2026-05-07 15:43 55.66383 12.72581 3034 ft 216 kts 38°
2026-05-07 15:44 55.67600 12.74400 3531 ft 237 kts 39°
2026-05-07 15:44 55.68905 12.76347 4170 ft 254 kts 39°
2026-05-07 15:44 55.70275 12.78393 5099 ft 259 kts 40°
2026-05-07 15:44 55.71649 12.80445 6104 ft 261 kts 41°
2026-05-07 15:45 55.73036 12.82523 7123 ft 263 kts 41°
2026-05-07 15:45 55.74476 12.84698 8091 ft 268 kts 41°
2026-05-07 15:45 55.75886 12.86897 9000 ft 273 kts 41°
2026-05-07 15:45 55.77348 12.89204 9919 ft 278 kts 41°
2026-05-07 15:46 55.80474 12.94134 11356 ft 302 kts 41°
2026-05-07 15:46 55.82129 12.96740 12154 ft 310 kts 41°
2026-05-07 15:46 55.83858 12.99468 13030 ft 316 kts 41°
2026-05-07 15:47 55.85580 13.02185 13866 ft 321 kts 40°
2026-05-07 15:47 55.87294 13.04896 14651 ft 326 kts 40°
2026-05-07 15:47 55.89005 13.07602 15405 ft 331 kts 40°
2026-05-07 15:47 55.90733 13.10340 16141 ft 336 kts 40°
2026-05-07 15:48 55.92499 13.13142 16867 ft 341 kts 40°
2026-05-07 15:48 55.94301 13.16005 17592 ft 346 kts 40°
2026-05-07 15:48 55.96116 13.18892 18272 ft 350 kts 40°
2026-05-07 15:48 55.97971 13.21845 19006 ft 354 kts 40°
2026-05-07 15:49 55.99836 13.24820 19687 ft 358 kts 40°
2026-05-07 15:49 56.01738 13.27857 20387 ft 362 kts 40°
2026-05-07 15:49 56.03664 13.30938 21085 ft 366 kts 40°
2026-05-07 15:49 56.05651 13.34124 21786 ft 369 kts 40°
2026-05-07 15:50 56.07645 13.37322 22464 ft 373 kts 40°
2026-05-07 15:50 56.09650 13.40542 23128 ft 376 kts 40°
2026-05-07 15:50 56.11636 13.43917 23769 ft 380 kts 44°
2026-05-07 15:50 56.13519 13.47704 24410 ft 385 kts 49°
2026-05-07 15:51 56.15236 13.51800 25045 ft 388 kts 52°
2026-05-07 15:51 56.16949 13.56140 25684 ft 391 kts 53°
2026-05-07 15:51 56.18677 13.60557 26288 ft 395 kts 53°
2026-05-07 15:51 56.20369 13.64886 26871 ft 397 kts 53°
2026-05-07 15:52 56.22062 13.69213 27417 ft 400 kts 53°
2026-05-07 15:52 56.23799 13.73650 27968 ft 402 kts 53°
2026-05-07 15:52 56.25498 13.77992 28487 ft 405 kts 53°
2026-05-07 15:52 56.27225 13.82411 28995 ft 407 kts 53°
2026-05-07 15:53 56.28996 13.86943 29507 ft 410 kts 53°
2026-05-07 15:53 56.30746 13.91439 30000 ft 412 kts 53°
2026-05-07 15:53 56.32522 13.96005 30485 ft 414 kts 53°
2026-05-07 15:53 56.34300 14.00586 30947 ft 416 kts 53°
2026-05-07 15:54 56.36083 14.05192 31350 ft 418 kts 53°
2026-05-07 15:54 56.37886 14.09854 31712 ft 421 kts 53°
2026-05-07 15:54 56.39712 14.14591 32055 ft 424 kts 53°
2026-05-07 15:54 56.41539 14.19336 32498 ft 424 kts 53°
2026-05-07 15:55 56.43385 14.24142 33001 ft 423 kts 53°
2026-05-07 15:55 56.45247 14.28998 33486 ft 421 kts 53°
2026-05-07 15:55 56.47054 14.33697 33919 ft 420 kts 53°
2026-05-07 15:55 56.48885 14.38421 34332 ft 419 kts 52°
2026-05-07 15:56 56.50753 14.43239 34742 ft 418 kts 52°
2026-05-07 15:56 56.52596 14.47994 35045 ft 418 kts 52°
2026-05-07 15:56 56.54424 14.52727 35276 ft 419 kts 52°
2026-05-07 15:56 56.56337 14.57690 35458 ft 421 kts 53°
2026-05-07 15:57 56.58239 14.62640 35641 ft 423 kts 52°
2026-05-07 15:57 56.60092 14.67475 35803 ft 425 kts 53°
2026-05-07 15:57 56.61989 14.72433 35961 ft 427 kts 54°
2026-05-07 15:57 56.63887 14.77404 36117 ft 429 kts 54°
2026-05-07 15:58 56.65798 14.82420 36311 ft 430 kts 54°
2026-05-07 15:58 56.67711 14.87454 36551 ft 431 kts 54°
2026-05-07 15:58 56.69668 14.92614 36774 ft 433 kts 54°
2026-05-07 15:58 56.71612 14.97750 37004 ft 434 kts 54°
2026-05-07 15:59 56.73566 15.02924 37241 ft 435 kts 54°
2026-05-07 15:59 56.75541 15.08169 37437 ft 437 kts 54°
2026-05-07 15:59 56.77504 15.13386 37604 ft 440 kts 54°
2026-05-07 15:59 56.79445 15.18558 37772 ft 442 kts 54°
2026-05-07 16:00 56.81451 15.23914 37949 ft 444 kts 54°
2026-05-07 16:00 56.83403 15.29135 38125 ft 445 kts 54°
2026-05-07 16:00 56.85376 15.34431 38286 ft 447 kts 54°
2026-05-07 16:00 56.87356 15.39754 38432 ft 449 kts 54°
2026-05-07 16:01 56.89307 15.45012 38571 ft 451 kts 55°
2026-05-07 16:01 56.91308 15.50415 38715 ft 453 kts 55°
2026-05-07 16:01 56.93295 15.55796 38857 ft 455 kts 55°
2026-05-07 16:01 56.95296 15.61223 39004 ft 456 kts 55°
2026-05-07 16:02 56.97243 15.66513 39037 ft 458 kts 56°
2026-05-07 16:02 57.00859 15.76375 39040 ft 459 kts 56°
2026-05-07 16:03 57.04490 15.86317 39043 ft 459 kts 56°
2026-05-07 16:03 57.08057 15.96122 39037 ft 459 kts 56°
2026-05-07 16:04 57.11621 16.05962 39037 ft 459 kts 56°
2026-05-07 16:04 57.15185 16.15842 39046 ft 460 kts 56°
2026-05-07 16:05 57.18713 16.25666 39050 ft 460 kts 56°
2026-05-07 16:05 57.22447 16.35774 39057 ft 461 kts 52°
2026-05-07 16:06 57.26603 16.45414 39060 ft 461 kts 49°
2026-05-07 16:06 57.30896 16.55176 39057 ft 461 kts 49°
2026-05-07 16:07 57.35311 16.65285 39062 ft 462 kts 50°
2026-05-07 16:07 57.39571 16.75106 39058 ft 463 kts 50°
2026-05-07 16:08 57.43937 16.85226 39064 ft 463 kts 50°
2026-05-07 16:08 57.48301 16.95385 39069 ft 463 kts 50°
2026-05-07 16:09 57.52645 17.05535 39068 ft 463 kts 50°
2026-05-07 16:09 57.57036 17.15842 39066 ft 464 kts 50°
2026-05-07 16:10 57.61406 17.26149 39070 ft 465 kts 50°
2026-05-07 16:10 57.65787 17.36520 39072 ft 465 kts 50°
2026-05-07 16:11 57.70225 17.47071 39071 ft 465 kts 50°
2026-05-07 16:11 57.74649 17.57640 39075 ft 466 kts 50°
2026-05-07 16:12 57.79038 17.68170 39073 ft 466 kts 51°
2026-05-07 16:12 57.83338 17.78532 39075 ft 467 kts 51°
2026-05-07 16:13 57.87679 17.89039 39073 ft 467 kts 51°
2026-05-07 16:13 57.92028 17.99612 39090 ft 468 kts 51°
2026-05-07 16:14 57.96395 18.10280 39094 ft 469 kts 51°
2026-05-07 16:14 58.00759 18.20984 39093 ft 469 kts 51°
2026-05-07 16:15 58.05137 18.31772 39095 ft 469 kts 51°
2026-05-07 16:15 58.09505 18.42581 39084 ft 469 kts 51°
2026-05-07 16:16 58.13873 18.53441 39089 ft 470 kts 51°
2026-05-07 16:16 58.18259 18.64400 39086 ft 470 kts 51°
2026-05-07 16:17 58.22595 18.75284 39084 ft 470 kts 52°
2026-05-07 16:17 58.26936 18.86227 39091 ft 471 kts 51°
2026-05-07 16:18 58.31256 18.97170 39086 ft 471 kts 51°
2026-05-07 16:18 58.35580 19.08172 39086 ft 472 kts 51°
2026-05-07 16:19 58.39862 19.19115 39089 ft 472 kts 52°
2026-05-07 16:19 58.44159 19.30148 39084 ft 472 kts 52°
2026-05-07 16:20 58.48466 19.41264 39077 ft 472 kts 51°
2026-05-07 16:20 58.52739 19.52341 39078 ft 473 kts 51°
2026-05-07 16:21 58.57012 19.63471 39068 ft 472 kts 51°
2026-05-07 16:21 58.61237 19.74520 39074 ft 473 kts 52°
2026-05-07 16:22 58.65456 19.85612 39082 ft 473 kts 52°
2026-05-07 16:22 58.69707 19.96838 39084 ft 474 kts 52°
2026-05-07 16:23 58.73940 20.08075 39090 ft 474 kts 52°
2026-05-07 16:23 58.78161 20.19332 39086 ft 474 kts 52°
2026-05-07 16:24 58.82399 20.30684 39094 ft 474 kts 52°
2026-05-07 16:24 58.86636 20.42088 39101 ft 474 kts 52°
2026-05-07 16:25 58.90871 20.53546 39088 ft 474 kts 52°
2026-05-07 16:25 58.95081 20.64989 39095 ft 475 kts 52°
2026-05-07 16:26 58.99255 20.76390 39102 ft 477 kts 53°
2026-05-07 16:26 59.03413 20.87811 39079 ft 477 kts 53°
2026-05-07 16:27 59.07376 20.99662 39095 ft 479 kts 57°
2026-05-07 16:27 59.10990 21.11222 39086 ft 480 kts 57°
2026-05-07 16:28 59.14511 21.22518 39079 ft 480 kts 57°
2026-05-07 16:28 59.18015 21.33771 39087 ft 479 kts 57°
2026-05-07 16:29 59.21661 21.45529 39079 ft 479 kts 57°
2026-05-07 16:29 59.25438 21.57778 39081 ft 479 kts 57°
2026-05-07 16:30 59.29205 21.70055 39029 ft 480 kts 58°
2026-05-07 16:30 59.31027 21.76024 38761 ft 480 kts 58°
2026-05-07 16:30 59.32841 21.81992 38459 ft 478 kts 58°
2026-05-07 16:30 59.34659 21.87981 38071 ft 476 kts 58°
2026-05-07 16:31 59.36382 21.93656 37612 ft 476 kts 58°
2026-05-07 16:31 59.38066 21.99213 37085 ft 479 kts 58°
2026-05-07 16:31 59.39782 22.04891 36461 ft 483 kts 58°
2026-05-07 16:31 59.41483 22.10535 35872 ft 486 kts 57°
2026-05-07 16:32 59.43206 22.16266 35264 ft 489 kts 57°
2026-05-07 16:32 59.44919 22.21978 34637 ft 493 kts 57°
2026-05-07 16:32 59.46684 22.27878 33991 ft 496 kts 57°
2026-05-07 16:32 59.48434 22.33745 33321 ft 500 kts 57°
2026-05-07 16:33 59.50183 22.39625 32528 ft 503 kts 57°
2026-05-07 16:33 59.51945 22.45563 31808 ft 503 kts 57°
2026-05-07 16:33 59.53689 22.51463 31280 ft 498 kts 57°
2026-05-07 16:33 59.55415 22.57318 30757 ft 493 kts 57°
2026-05-07 16:34 59.57126 22.63135 30226 ft 488 kts 57°
2026-05-07 16:34 59.58832 22.68947 29718 ft 482 kts 58°
2026-05-07 16:34 59.60511 22.74688 29221 ft 477 kts 58°
2026-05-07 16:34 59.62133 22.80249 28742 ft 472 kts 58°
2026-05-07 16:35 59.63771 22.85871 28261 ft 467 kts 58°
2026-05-07 16:35 59.65373 22.91390 27740 ft 464 kts 58°
2026-05-07 16:35 59.66969 22.96902 27176 ft 461 kts 58°
2026-05-07 16:35 59.68549 23.02373 26600 ft 459 kts 57°
2026-05-07 16:36 59.70118 23.07800 26034 ft 457 kts 57°
2026-05-07 16:36 59.71786 23.13061 25448 ft 452 kts 49°
2026-05-07 16:36 59.73817 23.17778 24536 ft 455 kts 43°
2026-05-07 16:36 59.75977 23.22323 23592 ft 461 kts 42°
2026-05-07 16:37 59.78154 23.26906 22960 ft 459 kts 43°
2026-05-07 16:37 59.80287 23.31508 22373 ft 447 kts 43°
2026-05-07 16:37 59.82326 23.35991 21407 ft 441 kts 44°
2026-05-07 16:37 59.84344 23.40494 20379 ft 434 kts 44°
2026-05-07 16:38 59.86311 23.44921 19380 ft 425 kts 44°
2026-05-07 16:38 59.88238 23.49281 18376 ft 416 kts 44°
2026-05-07 16:38 59.90094 23.53490 17354 ft 407 kts 44°
2026-05-07 16:38 59.91943 23.57694 16317 ft 399 kts 44°
2026-05-07 16:39 59.93751 23.61814 15296 ft 391 kts 44°
2026-05-07 16:39 59.95528 23.65870 14265 ft 383 kts 46°
2026-05-07 16:39 59.97246 23.69797 13264 ft 376 kts 46°
2026-05-07 16:39 59.98946 23.73693 12386 ft 364 kts 46°
2026-05-07 16:40 60.00574 23.77439 11919 ft 344 kts 46°
2026-05-07 16:40 60.02116 23.80992 11616 ft 333 kts 46°
2026-05-07 16:40 60.03616 23.84449 11276 ft 326 kts 46°
2026-05-07 16:40 60.05087 23.87843 10939 ft 320 kts 46°
2026-05-07 16:41 60.06538 23.91196 10581 ft 315 kts 46°
2026-05-07 16:41 60.07963 23.94488 10230 ft 311 kts 46°
2026-05-07 16:41 60.09381 23.97776 10022 ft 300 kts 46°
2026-05-07 16:41 60.10694 24.00830 9962 ft 286 kts 46°
2026-05-07 16:42 60.12008 24.03886 9627 ft 284 kts 46°
2026-05-07 16:42 60.13279 24.06842 9296 ft 280 kts 46°
2026-05-07 16:42 60.14552 24.09804 8982 ft 277 kts 46°
2026-05-07 16:42 60.15801 24.12718 8680 ft 273 kts 46°
2026-05-07 16:43 60.17059 24.15657 8361 ft 270 kts 46°
2026-05-07 16:43 60.18299 24.18555 8054 ft 267 kts 46°
2026-05-07 16:43 60.19527 24.21432 7745 ft 264 kts 46°
2026-05-07 16:43 60.20721 24.24233 7441 ft 261 kts 47°
2026-05-07 16:44 60.21928 24.27019 7144 ft 261 kts 44°
2026-05-07 16:44 60.23277 24.29668 6796 ft 261 kts 40°
2026-05-07 16:44 60.24643 24.32203 6361 ft 262 kts 40°
2026-05-07 16:44 60.26010 24.34710 5975 ft 260 kts 40°
2026-05-07 16:45 60.27340 24.37141 5574 ft 259 kts 40°
2026-05-07 16:45 60.28699 24.39629 5176 ft 258 kts 40°
2026-05-07 16:45 60.30030 24.42072 4975 ft 257 kts 40°
2026-05-07 16:45 60.31361 24.44519 4966 ft 259 kts 40°
2026-05-07 16:46 60.32688 24.46967 4963 ft 259 kts 40°
2026-05-07 16:46 60.34011 24.49408 4958 ft 257 kts 40°
2026-05-07 16:46 60.35324 24.51840 4685 ft 255 kts 40°
2026-05-07 16:46 60.36629 24.54256 4241 ft 256 kts 40°
2026-05-07 16:47 60.37933 24.56674 3888 ft 254 kts 40°
2026-05-07 16:47 60.39210 24.59053 3721 ft 245 kts 40°
2026-05-07 16:47 60.40448 24.61354 3497 ft 239 kts 40°
2026-05-07 16:47 60.41540 24.63945 2862 ft 253 kts 60°
2026-05-07 16:48 60.42200 24.67203 2561 ft 250 kts 69°
2026-05-07 16:48 60.42748 24.70464 2394 ft 242 kts 70°
2026-05-07 16:48 60.43263 24.73662 2233 ft 234 kts 71°
2026-05-07 16:48 60.43752 24.76734 2044 ft 228 kts 70°
2026-05-07 16:49 60.44180 24.79830 1968 ft 228 kts 82°
2026-05-07 16:49 60.43937 24.83006 1955 ft 232 kts 116°
2026-05-07 16:49 60.43024 24.85659 1960 ft 225 kts 137°
2026-05-07 16:49 60.41802 24.87488 1951 ft 209 kts 151°
2026-05-07 16:50 60.40521 24.88853 1867 ft 194 kts 156°
2026-05-07 16:50 60.39304 24.90040 1635 ft 179 kts 156°
2026-05-07 16:50 60.38181 24.91167 1354 ft 167 kts 155°
2026-05-07 16:50 60.37114 24.92264 1097 ft 155 kts 155°
2026-05-07 16:51 60.36146 24.93260 876 ft 143 kts 155°
2026-05-07 16:51 60.35238 24.94190 684 ft 135 kts 155°
2026-05-07 16:51 60.34358 24.95090 507 ft 134 kts 154°
2026-05-07 16:51 60.33493 24.95988 317 ft 132 kts 154°
2026-05-07 16:52 60.32662 24.96841 184 ft 127 kts 154°
2026-05-07 16:52 60.31974 24.97531 183 ft 82 kts 153°
2026-05-07 16:52 60.31741 24.97722 186 ft 10 kts 193°
2026-05-07 16:52 60.31673 24.97632 187 ft 11 kts 235°
2026-05-07 16:53 60.31659 24.97579 188 ft 0 kts 242°
2026-05-07 16:54 60.31659 24.97566 188 ft 4 kts 279°
2026-05-07 16:54 60.31681 24.97500 190 ft 9 kts 321°
2026-05-07 16:54 60.31775 24.97393 190 ft 17 kts 332°
2026-05-07 16:54 60.31891 24.97273 187 ft 19 kts 333°
2026-05-07 16:55 60.32023 24.97136 182 ft 22 kts 333°
2026-05-07 16:55 60.32133 24.97011 178 ft 13 kts 313°
2026-05-07 16:55 60.32108 24.96878 179 ft 7 kts 226°
2026-05-07 16:55 60.32078 24.96811 180 ft 4 kts 228°
2026-05-07 16:56 60.32029 24.96731 182 ft 10 kts 192°
2026-05-07 16:56 60.31992 24.96731 183 ft 1 kts 176°
2026-05-07 16:56 60.31966 24.96735 184 ft 0 kts 176°
2026-05-07 16:57 60.31962 24.96736 185 ft 0 kts 176°
2026-05-07 16:57 60.31961 24.96736 185 ft 0 kts 176°